STARLINK-30457, 57900

Orbit data source: Space-Track

STARLINK-30457, 57900 is a payload satellite owned by SpaceX/Seattle (US) in LEO that was launched on Wed, 20 Sep 2023 UTC via an FALCON 9 launch vehicle from the Air Force Eastern Test Range (AFETR). Payload-class satellites include a variety of spacecraft equipped with specific instruments for various scientific and technological missions. These include communications satellites like Starlink; space stations such as the ISS; scientific satellites like the Hubble; Earth observation satellites from companies like Planet Labs, Umbra, and HawkEye 360; GPS; miniature CubeSats for education and research; and military/defense satellites.

Loading next visibility...
Identifier
57900, 2023-146K
Orbit
LEO
Country
Flag of USUS
Related business
Manufacturer
SpaceX/Seattle
Mission
Operational Commercial Communications
Bus & Motor
STARLINK V2M, Unknown motor
Mass
730 kg wet, ~700 kg dry
Launch date (UTC)
2023-09-20 (3 years ago)
Launch vehicle
FALCON 9
Launch site
Air Force Eastern Test Range (AFETR)
Object type
Payload
Rocket body
Debris
Shape & HBR
Box + 2 Pan, 17.7 m
Radar Cross Section
33.884 m², Large (>1 m²)

Expand to show TLE details & history
Last TLE update: 2 days ago

TLE from 2 days ago
0 STARLINK-30457
1 57900U 23146K   26170.96304262 -.00000080  00000-0  66101-5 0  9993
2 57900  43.0001  96.9495 0000934 264.8628  95.2117 15.27580004151638
Epoch: 2026-06-19T23:06Z
TLE epoch observation values (Epoch: 2026-06-19T23:06:46.882Z)
Latitude
-0.00002°
Longitude
-157.93034°
Altitude
482.883 km
Speed
7.626 km/s
True Right ascension
06h 27m 47s
True Declination
0° 00' 00"
Sunlit
Object was in daylight at epoch
Visualization orbit readout
Latitude
Unknown
Longitude
Unknown
Altitude
Unknown
Speed
Unknown
Apparent Right ascension
Unknown
Apparent Declination
Unknown
Sunlit
N/A
Visualization observer readout
Local Sidereal Time
21:43:00
Azimuth
Unknown
Elevation
Unknown
Doppler factor
Unknown
Orbital elements
Apogee altitude
485.635 km
Perigee altitude
484.353 km
Semi-major axis
6,863.131 km
Eccentricity
0.00009
Inclination
43.0001°
RAAN
96.9495°
Arg. of periapsis
264.8628°
True anomaly
95.22236°
Mean anomaly
95.2117°
Eccentric anomaly
95.21703°
Mean motion
3.81733 °/min
Orbital period
94.31 mins
BSTAR
0.0000066101
Loading maneuver chart data...
Computing Atmospheric mass density...
Loading historical data...
Loading historical data...
Loading historical data...
Loading historical data...
Loading historical data...
Loading historical data...
Loading historical data...

Documentation

Showing up to 5 results
|